Home   Weather   Mason   Past weeks

Flag for USA Past Weather in Mason, Ohio, USA — Yesterday and Last 2 Weeks

Now
59 °F

Mostly cloudy.


Feels Like: 60 °F
Forecast: 55 / 68 °F
Wind: 3 mph from East

Location: Butler County Regional Airport

Current Time: Sep 30, 2016 at 12:58:57 AM

Latest Report: Sep 29, 2016 at 11:53 PM


Visibility: 10 mi

Pressure: 30.09 "Hg

Humidity: 84%

Dew Point: 54 °F

Location of MasonLocation

Past Weather in Mason — Graph

°F

Mason Temperature Yesterday

Maximum temperature yesterday: 66 °F (at 3:53 PM)
Minimum temperature yesterday: 50 °F (at 12:56 AM)
Average temperature yesterday: 58 °F

High & Low Weather Summary for the Past Weeks

 TemperatureHumidityPressure
High88 °F (Sep 20, 4:53 PM)97% (Sep 19, 1:53 AM)30.23 "Hg (Sep 19, 1:53 AM)
Low43 °F (Sep 27, 7:01 AM)31% (Sep 20, 2:53 PM)29.81 "Hg (Sep 28, 5:53 AM)
Average68 °F78%30.06 "Hg
* Reported Sep 14 11:53 PM — Sep 29 11:53 PM, Mason, Weather by CustomWeather, © 2016

Note: Actual official high and low records may vary slightly from our data, if they occured in-between our weather recording intervals... More about our weather records

Advertising

Mason Weather History for the Previous 24 Hours

Scroll right to see more
 ConditionsComfort  
Time TempWeatherWind HumidityBarometerVisibility
11:53 PM
Thu, Sep 29
59 °FMostly cloudy.3 mph84%30.09 "Hg10 mi
10:53 PM59 °FOvercast.3 mph81%30.08 "Hg10 mi
9:53 PM60 °FMostly cloudy.5 mph80%30.09 "Hg10 mi
8:53 PM61 °FOvercast.3 mph81%30.10 "Hg10 mi
7:53 PM58 °FClear.No wind90%30.08 "Hg10 mi
6:53 PM62 °FScattered clouds.6 mph78%30.07 "Hg10 mi
5:53 PM65 °FPartly sunny.No wind66%30.08 "Hg10 mi
4:53 PM65 °FCloudy.6 mph68%30.07 "Hg10 mi
3:53 PM66 °FPartly sunny.6 mph63%30.07 "Hg10 mi
2:53 PM65 °FMostly cloudy.8 mph66%30.09 "Hg10 mi
1:53 PM65 °FBroken clouds.7 mph66%30.09 "Hg10 mi
12:53 PM63 °FPartly sunny.6 mph70%30.09 "Hg10 mi
11:53 AM59 °FMore clouds than sun.9 mph81%30.09 "Hg10 mi
10:53 AM57 °FMostly cloudy.3 mph87%30.09 "Hg10 mi
9:53 AM57 °FPartly sunny.6 mph87%30.07 "Hg7 mi
9:04 AM56 °FFog.No wind90%30.06 "Hg5 mi
8:53 AM55 °FFog.No wind93%30.06 "Hg6 mi
7:53 AM54 °FFog.3 mph93%30.04 "Hg6 mi
6:53 AM53 °FFog.No wind96%30.01 "Hg6 mi
5:53 AM51 °FFog.No wind96%29.99 "Hg3 mi
4:53 AM51 °FFog.No wind96%29.98 "Hg3 mi
3:53 AM51 °FFog.No wind96%29.98 "Hg4 mi
2:53 AM51 °FFog.No wind96%29.98 "Hg4 mi
1:53 AM50 °FFog.No wind96%29.97 "Hg4 mi
12:56 AM50 °FFog.3 mph96%29.97 "Hg3 mi
Weather by CustomWeather, © 2016

See weather overviewHow to use our weather pages